Satellite: MET-3/5
Catalog number: 21655
Epoch time:      10279.62651367
Element set:    0932
Inclination:      082.5552 deg
RA of node:       229.8884 deg
Eccentricity:    0.0014997
Arg of perigee:   071.9842 deg
Mean anomaly:     288.2901 deg
Mean motion:   13.17022604 rev/day
Decay rate:        5.1e-07 rev/day^2
Epoch rev:           92034
Checksum:              316

Satellite: MET-2/21
Catalog number: 22782
Epoch time:      10279.29278918
Element set:    0904
Inclination:      082.5496 deg
RA of node:       164.3103 deg
Eccentricity:    0.0023844
Arg of perigee:   090.5074 deg
Mean anomaly:     269.8813 deg
Mean motion:   13.83649399 rev/day
Decay rate:       -2.2e-07 rev/day^2
Epoch rev:           86344
Checksum:              335

Satellite: OKEAN-4
Catalog number: 23317
Epoch time:      10279.73032725
Element set:    0360
Inclination:      082.5374 deg
RA of node:       249.7360 deg
Eccentricity:    0.0020509
Arg of perigee:   232.0635 deg
Mean anomaly:     127.8720 deg
Mean motion:   14.82870056 rev/day
Decay rate:       2.21e-06 rev/day^2
Epoch rev:           86298
Checksum:              290

Satellite: NOAA-14
Catalog number: 23455
Epoch time:      10279.74824392
Element set:    0222
Inclination:      098.8716 deg
RA of node:       359.6765 deg
Eccentricity:    0.0008556
Arg of perigee:   281.3872 deg
Mean anomaly:     078.6334 deg
Mean motion:   14.13796268 rev/day
Decay rate:        2.7e-07 rev/day^2
Epoch rev:           81326
Checksum:              341

Satellite: NOAA-15
Catalog number: 25338
Epoch time:      10279.52735765
Element set:    0549
Inclination:      098.6304 deg
RA of node:       264.5202 deg
Eccentricity:    0.0011647
Arg of perigee:   108.7850 deg
Mean anomaly:     251.4583 deg
Mean motion:   14.24857587 rev/day
Decay rate:      -1.00e-06 rev/day^2
Epoch rev:           64460
Checksum:              314

Satellite: RESURS
Catalog number: 25394
Epoch time:      10279.56104094
Element set:    0623
Inclination:      098.3038 deg
RA of node:       291.5711 deg
Eccentricity:    0.0000414
Arg of perigee:   269.3281 deg
Mean anomaly:     090.7854 deg
Mean motion:   14.24211286 rev/day
Decay rate:       -1.0e-08 rev/day^2
Epoch rev:           63620
Checksum:              273

Satellite: FENGYUN1
Catalog number: 25730
Epoch time:      10279.42776622
Element set:    0154
Inclination:      098.7952 deg
RA of node:       241.5299 deg
Eccentricity:    0.0021718
Arg of perigee:   314.5551 deg
Mean anomaly:     045.3828 deg
Mean motion:   14.08316718 rev/day
Decay rate:       8.81e-06 rev/day^2
Epoch rev:           58734
Checksum:              320

Satellite: OKEAN-0
Catalog number: 25860
Epoch time:      10279.83950776
Element set:    0119
Inclination:      097.8476 deg
RA of node:       248.8305 deg
Eccentricity:    0.0001932
Arg of perigee:   079.6070 deg
Mean anomaly:     280.5354 deg
Mean motion:   14.73668268 rev/day
Decay rate:        9.9e-07 rev/day^2
Epoch rev:           60334
Checksum:              334

Satellite: NOAA-16
Catalog number: 26536
Epoch time:      10279.50336783
Element set:    0025
Inclination:      099.1681 deg
RA of node:       299.5793 deg
Eccentricity:    0.0010937
Arg of perigee:   029.1804 deg
Mean anomaly:     330.9980 deg
Mean motion:   14.12577638 rev/day
Decay rate:      -2.16e-06 rev/day^2
Epoch rev:           51754
Checksum:              330

Satellite: NOAA-17
Catalog number: 27453
Epoch time:      10279.70300815
Element set:    0017
Inclination:      098.4197 deg
RA of node:       325.5865 deg
Eccentricity:    0.0011875
Arg of perigee:   166.6127 deg
Mean anomaly:     193.5358 deg
Mean motion:   14.24195986 rev/day
Decay rate:        4.4e-07 rev/day^2
Epoch rev:           43057
Checksum:              324

Satellite: NOAA-18
Catalog number: 28654
Epoch time:      10279.67167683
Element set:    0506
Inclination:      098.9607 deg
RA of node:       225.6680 deg
Eccentricity:    0.0015235
Arg of perigee:   098.3552 deg
Mean anomaly:     261.9320 deg
Mean motion:   14.11395107 rev/day
Decay rate:        9.0e-08 rev/day^2
Epoch rev:           27716
Checksum:              323

Satellite: NOAA-19
Catalog number: 33591
Epoch time:      10279.68398628
Element set:    0702
Inclination:      098.7966 deg
RA of node:       219.4751 deg
Eccentricity:    0.0013783
Arg of perigee:   337.4668 deg
Mean anomaly:     022.5891 deg
Mean motion:   14.11090298 rev/day
Decay rate:       2.48e-06 rev/day^2
Epoch rev:           08563
Checksum:              350

/EX
SB KEPS @ AMSAT  $ORB10280.M
Orbital Elements  10280.MISC

HR AMSAT ORBITAL ELEMENTS FOR MANNED AND MISCELLANEOUS SATELLITES
FROM WA5QGD FORT WORTH,TX October 7, 2010
BID: ORB10280.M
TO ALL RADIO AMATEURS BT

Satellite: HUBBLE
Catalog number: 20580
Epoch time:      10280.01802476
Element set:     656
Inclination:      028.4697 deg
RA of node:       229.7651 deg
Eccentricity:    0.0003357
Arg of perigee:   305.1190 deg
Mean anomaly:     054.9084 deg
Mean motion:   15.01054729 rev/day
Decay rate:       6.22e-06 rev/day^2
Epoch rev:           92157
Checksum:              283

Satellite: ISS
Catalog number: 25544
Epoch time:      10280.80575351
Element set:      30
Inclination:      051.6478 deg
RA of node:       014.4306 deg
Eccentricity:    0.0007682
Arg of perigee:   071.6451 deg
Mean anomaly:     020.7177 deg
Mean motion:   15.71746973 rev/day
Decay rate:     1.7987e-04 rev/day^2
Epoch rev:           68118
Checksum:              301

